Flag for Germany Weather past 2 weeks in Mörfelden-Walldorf, Hesse, Germany

Now
41 °F

Passing clouds.


Feels Like: 36 °F
Forecast: 35 / 51 °F
Wind: 7 mph from South

Location: Frankfurt-M-Flughafen Airport

Current Time: Feb 28, 2015 at 6:38:43 PM

Latest Report: Feb 28, 2015 at 6:20 PM


Visibility: N/A

Pressure: 30.04 "Hg

Humidity: 61%

Dew point: 28 °F

Location of Mörfelden-WalldorfLocation

Historic Weather in Mörfelden-Walldorf — Graph

°F

Mörfelden-Walldorf temperature yesterday

Maximum temperature yesterday: 41 °F (at 12:20 AM)
Minimum temperature yesterday: 37 °F (at 5:20 AM)
Average temperature yesterday: 40 °F

Past Weeks' High & Low Weather Summary

 TemperatureHumidityPressure
High52 °F (Feb 20, 1:50 PM)100% (Feb 22, 2:50 AM)30.74 "Hg (Feb 22, 2:50 AM)
Low25 °F (Feb 15, 4:50 AM)50% (Feb 20, 4:50 PM)29.45 "Hg (Feb 21, 7:20 AM)
Average38 °F80%30.02 "Hg
* Reported Feb 13 5:20 PM — Feb 28 5:20 PM, Mörfelden-Walldorf, Weather by CustomWeather, © 2015

Note: Actual official high and low records may vary slightly from our data, if they occured in-between our weather recording intervals... More about our weather records

Advertising

Mörfelden-Walldorf weather history for previous 24 hours

 ConditionsComfort  
Time TempWeatherWind HumidityBarometerVisibility
5:20 PM
Sat, Feb 28
43 °FPassing clouds.8 mph57%30.04 "HgN/A
4:50 PM45 °FPassing clouds.8 mph53%30.07 "HgN/A
4:20 PM45 °FPassing clouds.9 mph57%30.07 "HgN/A
3:50 PM45 °FPassing clouds.8 mph53%30.07 "HgN/A
3:20 PM45 °FScattered clouds.9 mph53%30.09 "HgN/A
2:50 PM45 °FBroken clouds.10 mph57%30.09 "HgN/A
2:20 PM45 °FBroken clouds.9 mph61%30.09 "HgN/A
1:50 PM45 °FScattered clouds.6 mph61%30.09 "HgN/A
1:20 PM45 °FScattered clouds.8 mph61%30.12 "HgN/A
12:50 PM43 °FScattered clouds.10 mph61%30.12 "HgN/A
12:20 PM43 °FPassing clouds.10 mph66%30.15 "HgN/A
11:50 AM43 °FPassing clouds.7 mph71%30.15 "HgN/A
11:20 AM41 °FPassing clouds.7 mph70%30.18 "HgN/A
10:50 AM39 °FPassing clouds.5 mph75%30.18 "HgN/A
10:20 AM37 °FPassing clouds.3 mph81%30.18 "HgN/A
9:50 AM36 °FPassing clouds.5 mph87%30.18 "HgN/A
9:20 AM36 °FSunny.5 mph87%30.18 "Hg10 mi
8:50 AM34 °FPassing clouds.3 mph93%30.18 "HgN/A
8:20 AM32 °FSunny.5 mph93%30.18 "Hg10 mi
7:50 AM28 °FLight fog.3 mph100%30.18 "HgN/A
7:20 AM28 °FLight fog.6 mph93%30.18 "HgN/A
6:50 AM28 °FLight fog.3 mph100%30.15 "HgN/A
6:20 AM32 °FLight fog.5 mph93%30.15 "HgN/A
5:50 AM30 °FClear.3 mph100%30.15 "Hg10 mi
5:20 AM30 °FClear.5 mph93%30.15 "Hg10 mi
4:20 AM34 °FClear.5 mph87%30.15 "Hg10 mi
3:50 AM34 °FClear.9 mph87%30.15 "Hg10 mi
3:20 AM34 °FClear.10 mph93%30.15 "Hg10 mi
2:50 AM37 °FClear.7 mph81%30.15 "Hg10 mi
2:20 AM34 °FClear.5 mph93%30.15 "Hg10 mi
1:50 AM39 °FPartly cloudy.6 mph75%30.15 "HgN/A
1:20 AM39 °FClear.8 mph75%30.15 "Hg10 mi
12:50 AM39 °FClear.8 mph81%30.15 "Hg10 mi
12:20 AM39 °FClear.8 mph81%30.15 "Hg10 mi
11:50 PM
Fri, Feb 27
37 °FClear.6 mph87%30.15 "Hg10 mi
11:20 PM39 °FMostly cloudy.7 mph81%30.12 "HgN/A
10:50 PM41 °FLight rain. Mostly cloudy.8 mph76%30.12 "HgN/A
10:20 PM41 °FMostly cloudy.6 mph76%30.12 "HgN/A
9:50 PM39 °FMostly cloudy.6 mph87%30.12 "HgN/A
9:20 PM41 °FLight rain. Passing clouds.10 mph81%30.09 "HgN/A
8:50 PM39 °FLight rain. Passing clouds.9 mph87%30.09 "HgN/A
8:20 PM39 °FLight rain. Partly cloudy.9 mph93%30.09 "HgN/A
7:50 PM41 °FLight rain. Mostly cloudy.9 mph81%30.07 "HgN/A
7:20 PM41 °FLight rain. Passing clouds.9 mph81%30.07 "HgN/A
6:50 PM41 °FLight rain. Mostly cloudy.8 mph81%30.07 "HgN/A
6:20 PM41 °FLight rain. Passing clouds.2 mph81%30.04 "HgN/A
Weather by CustomWeather, © 2015

See weather overviewHow to use our weather pages